STARLINK-4044, 52662

Orbit data source: Space-Track

STARLINK-4044, 52662 is a payload satellite owned by SpaceX/Seattle (US) in LEO that was launched on Wed, 18 May 2022 UTC via an FALCON 9 launch vehicle from the Air Force Eastern Test Range (AFETR). Payload-class satellites include a variety of spacecraft equipped with specific instruments for various scientific and technological missions. These include communications satellites like Starlink; space stations such as the ISS; scientific satellites like the Hubble; Earth observation satellites from companies like Planet Labs, Umbra, and HawkEye 360; GPS; miniature CubeSats for education and research; and military/defense satellites.

Loading next visibility...
Identifier
52662, 2022-053G
Orbit
LEO
Country
Flag of USUS
Related business
Manufacturer
SpaceX/Seattle
Mission
Operational Commercial Communications
Bus & Motor
STARLINK, Unknown motor
Mass
297 kg wet, ~275 kg dry
Launch date (UTC)
2022-05-18 (4 years ago)
Launch vehicle
FALCON 9
Launch site
Air Force Eastern Test Range (AFETR)
Object type
Payload
Rocket body
Debris
Shape & HBR
Box + 1 Pan, 10.1 m
Radar Cross Section
13.562 m², Large (>1 m²)

Expand to show TLE details & history
Last TLE update: 2 days ago

TLE from 2 days ago
0 STARLINK-4044
1 52662U 22053G   26170.95117449  .00000158  00000-0  28039-4 0  9999
2 52662  53.1604  54.9399 0001370  89.0411 271.0737 15.08834641226484
Epoch: 2026-06-19T22:49Z
TLE epoch observation values (Epoch: 2026-06-19T22:49:41.475Z)
Latitude
-0.00008°
Longitude
164.34424°
Altitude
540.634 km
Speed
7.593 km/s
True Right ascension
03h 39m 45s
True Declination
0° 00' 00"
Sunlit
Object was in daylight at epoch
Visualization orbit readout
Latitude
Unknown
Longitude
Unknown
Altitude
Unknown
Speed
Unknown
Apparent Right ascension
Unknown
Apparent Declination
Unknown
Sunlit
N/A
Visualization observer readout
Local Sidereal Time
21:30:29
Azimuth
Unknown
Elevation
Unknown
Doppler factor
Unknown
Orbital elements
Apogee altitude
540.962 km
Perigee altitude
539.066 km
Semi-major axis
6,918.151 km
Eccentricity
0.00014
Inclination
53.1604°
RAAN
54.9399°
Arg. of periapsis
89.0411°
True anomaly
271.058°
Mean anomaly
271.0737°
Eccentric anomaly
271.06585°
Mean motion
3.77188 °/min
Orbital period
95.44 mins
BSTAR
0.000028039
Loading maneuver chart data...
Computing Atmospheric mass density...
Loading historical data...
Loading historical data...
Loading historical data...
Loading historical data...
Loading historical data...
Loading historical data...
Loading historical data...

Documentation

Showing up to 5 results
|